User: anonymous   Login
Location: Unspecified
(0.0000°N, 0.0000°E)
Time: 15:41:04
(UTC+02:00)
Language:

ARIANE 44L R/B - Orbit

View from above orbital plane
View from above orbital plane
View from above satellite
View from above satellite

Ground track
Ground track

The orbit data is extracted from the following two-line orbital elements,

1 26901U 01039B   16271.26089644  .00012684  00000-0  27161-2 0  9997
2 26901   7.1863 263.0602 6904115  84.6644 344.2028  2.77016779136270
Epoch (UTC): 27 September 2016 06:15:41
Eccentricity: 0.6904115
inclination: 7.1863°
perigee height: 252 km
apogee height: 29823 km
right ascension of ascending node: 263.0602°
argument of perigee: 84.6644°
revolutions per day: 2.77016779
mean anomaly at epoch: 344.2028°
orbit number at epoch: 13627

The dashed part of the orbit path shows where the satellite is in the earth's shadow,  

DLR